Theta_e
284 286 285 284 285 284 283 284 284 282 281 281 281 281 280 280 280 280 279 278 278 277 278 278 277 278 277 276 276 275 275 275 272 273 275 275 275 274 275 276 276 276 277
285 285 284 284 283 283 283 283 283 282 281 281 281 280 280 280 280 280 279 278 278 277 277 277 276 276 274 274 274 273 273 274 272 270 272 272 273 273 274 274 275 277 277
288 285 284 284 283 284 284 283 283 282 281 281 281 280 280 280 279 280 279 278 278 278 277 276 275 274 272 272 272 271 271 273 271 270 270 272 272 273 273 275 275 276 278
286 285 284 283 284 285 285 284 282 282 281 281 281 280 280 280 280 279 279 278 278 277 277 276 274 274 273 271 271 271 271 270 270 270 270 270 271 274 274 274 274 276 275
286 286 286 285 284 284 284 284 281 282 282 281 280 280 280 280 279 279 279 278 277 276 275 275 274 274 276 274 271 270 270 268 268 268 269 270 272 273 273 274 273 274 275
285 285 286 285 283 282 284 283 280 280 280 280 280 279 278 279 283 284 280 278 277 275 274 274 273 274 277 278 277 276 272 266 262 264 271 271 273 273 274 273 273 272 271
284 284 284 283 283 284 281 280 280 279 280 279 279 279 278 279 284 285 284 278 277 275 274 273 272 273 274 275 278 277 277 277 274 272 272 273 273 273 274 273 274 274 273
283 283 283 282 281 281 278 279 278 278 278 278 279 278 279 278 284 286 284 277 276 275 274 274 273 272 273 274 275 275 275 275 275 275 274 274 274 275 275 276 275 271 271
283 283 282 281 280 279 277 277 278 278 278 279 279 278 278 278 283 286 283 276 276 274 274 274 274 273 275 277 273 271 272 273 276 278 279 280 280 279 278 271 264 262 264
280 281 281 279 277 277 276 274 275 278 278 278 277 278 278 277 282 286 283 275 274 273 273 274 276 274 277 278 272 270 268 271 273 271 273 274 274 272 274 272 266 259 264
277 277 280 281 278 277 277 273 274 275 274 273 274 275 276 276 278 285 285 275 274 273 272 272 273 278 278 280 277 272 271 273 272 268 268 268 269 269 269 270 271 269 265
275 275 277 278 279 277 275 274 273 274 274 271 271 270 272 274 278 284 285 278 278 273 272 273 273 278 279 280 279 277 278 271 263 261 260 263 266 267 268 270 270 271 271
272 272 273 274 277 277 275 274 272 273 272 269 270 269 270 272 274 282 285 281 279 274 274 274 276 279 279 279 280 279 273 266 263 258 261 264 266 268 269 269 269 269 269
268 268 269 270 273 277 275 275 273 272 272 272 270 270 270 270 272 276 281 281 279 274 275 275 276 278 279 273 275 274 269 267 265 264 264 266 267 266 266 267 265 266 264
265 266 266 268 269 273 275 274 273 274 275 273 273 273 271 269 271 276 281 279 276 273 273 273 274 271 269 267 267 266 266 266 265 264 264 264 264 264 264 266 265 264 262
262 263 264 266 267 270 273 273 277 278 278 279 279 275 274 276 276 278 282 282 279 278 272 271 269 268 267 266 265 264 265 265 265 265 264 263 263 262 262 263 263 262 261
260 261 262 264 265 267 271 270 270 273 279 280 280 280 279 276 278 279 281 283 281 278 270 268 267 266 266 266 265 264 264 264 264 263 263 262 262 261 261 261 261 262 261
259 260 261 262 264 266 269 270 270 270 269 273 279 279 280 279 279 279 281 282 278 275 268 267 266 265 265 264 263 263 263 262 262 261 261 259 257 257 257 258 259 259 260
259 260 261 262 264 266 267 270 270 270 270 271 273 276 279 280 278 280 281 277 275 266 267 266 265 264 263 263 262 261 260 259 258 257 256 254 255 255 256 257 259 260 261
259 260 261 262 263 264 266 269 268 268 269 270 270 272 275 276 274 275 277 277 269 267 266 264 263 262 261 260 259 257 256 255 254 254 252 253 254 255 257 257 259 259 259
260 260 261 261 263 265 267 267 268 267 268 269 270 273 276 273 273 274 276 268 267 264 264 262 260 260 258 257 256 254 254 255 253 252 252 251 253 254 256 258 258 259 261
261 261 261 261 263 266 267 267 267 267 268 269 270 273 278 273 271 266 266 265 264 263 262 260 259 258 256 255 255 254 253 252 251 251 250 251 253 255 256 257 259 261 262
263 264 265 266 266 267 267 267 267 267 268 269 270 271 271 266 265 263 260 259 259 258 258 258 257 255 254 255 254 255 254 253 252 249 249 251 252 253 255 257 259 261 261
262 263 263 264 264 264 264 265 266 266 267 268 264 263 262 262 259 259 258 258 257 256 256 256 255 255 254 252 251 251 250 249 249 249 249 250 253 254 256 258 261 261 260
261 261 261 262 263 263 263 263 264 263 262 261 260 260 260 259 258 257 257 257 256 255 254 254 255 254 253 252 252 250 250 255 254 252 250 253 253 254 258 259 261 260 259
259 260 260 261 261 262 262 261 260 260 259 259 259 259 259 258 257 257 256 256 255 255 255 254 254 253 253 253 252 253 253 257 255 254 254 256 259 263 258 259 260 259 257
Wind_Speed
5 6 6 5 6 7 10 11 12 9 12 14 15 15 16 16 14 13 12 12 13 11 9 10 9 8 6 5 4 3 4 4 4 1 2 3 5 4 7 8 10 10 8
6 7 8 7 8 8 10 10 12 14 14 15 15 15 15 16 16 17 16 14 15 14 13 11 10 7 8 7 5 7 6 6 3 4 2 2 4 3 8 8 7 7 7
12 10 9 9 9 14 14 12 11 13 15 15 16 18 18 18 18 18 17 16 16 14 14 14 12 12 10 8 8 8 5 5 4 4 2 3 5 4 6 7 7 5 5
11 10 13 11 14 14 13 12 13 14 13 15 17 17 17 19 19 19 18 16 16 14 14 13 13 14 13 12 8 8 6 7 4 4 4 5 5 5 4 5 6 5 7
13 16 15 9 8 10 11 12 11 13 15 14 13 15 16 16 15 19 19 18 17 15 13 13 12 12 18 15 9 10 9 6 5 4 4 4 3 2 4 5 7 9 8
15 14 15 13 7 9 11 10 11 13 13 13 16 16 16 13 27 32 23 17 17 17 15 12 11 14 18 21 19 18 14 9 6 5 4 4 3 3 4 6 7 9 7
15 14 14 16 15 11 8 7 11 14 13 15 16 16 17 17 29 31 30 15 17 16 16 14 12 10 12 12 19 19 18 19 14 9 6 4 2 3 5 7 8 9 8
13 12 14 16 15 12 7 7 6 7 13 14 15 16 16 16 30 31 30 15 16 17 17 18 17 17 16 15 15 13 10 7 6 5 4 4 5 5 7 5 7 7 9
15 16 17 15 16 13 7 6 6 6 9 12 11 14 17 15 30 31 28 14 15 16 15 16 16 16 23 26 13 12 10 8 11 14 13 13 10 11 8 3 3 3 7
15 17 15 13 13 14 8 5 4 6 8 7 8 10 12 12 27 31 29 12 14 11 13 15 22 19 27 29 15 13 11 9 8 3 0 3 2 5 9 3 3 3 5
14 17 18 13 12 10 10 2 4 5 3 3 4 5 8 11 16 32 34 12 11 11 11 12 11 25 26 27 21 11 9 9 9 6 4 2 3 3 3 4 4 4 7
15 17 16 17 11 7 8 6 4 6 8 7 7 4 4 7 16 28 33 23 21 14 14 11 12 26 25 24 18 19 18 10 5 4 2 2 2 1 3 4 7 8 10
17 17 17 17 16 10 10 9 6 7 6 7 8 8 7 7 8 25 31 28 24 10 9 15 23 26 25 21 21 19 8 6 5 3 3 2 1 3 6 6 9 12 13
17 18 17 16 16 13 9 9 9 8 9 9 10 10 9 9 10 10 13 16 20 12 16 12 16 17 15 9 7 10 6 5 5 3 2 1 1 3 4 5 8 8 9
17 17 16 14 15 15 11 10 10 11 12 10 10 9 11 11 13 18 18 13 14 17 15 12 11 8 9 6 5 5 4 5 5 3 2 1 2 3 5 6 7 8 8
18 15 13 12 12 12 12 10 20 24 23 26 22 15 10 15 21 27 30 27 30 33 13 12 12 11 10 9 8 7 6 6 5 4 2 1 2 3 6 6 7 7 9
18 18 14 14 12 12 12 10 10 9 26 25 27 24 24 19 24 32 32 29 29 28 11 11 10 11 10 9 8 7 7 6 6 4 2 1 2 4 7 7 8 8 9
19 23 15 13 13 13 13 10 9 8 8 9 22 20 25 23 25 28 33 32 19 19 10 12 11 10 9 9 9 7 7 7 6 5 3 2 1 3 6 7 7 9 10
17 14 13 13 12 14 13 11 9 9 9 8 6 14 17 24 22 26 33 15 15 13 14 12 10 10 9 8 7 6 6 5 5 4 2 3 3 3 6 7 9 12 14
16 21 19 13 13 13 12 11 7 8 8 8 8 9 8 11 11 12 15 12 10 12 10 11 10 9 9 8 7 6 5 5 4 3 3 3 3 5 7 7 9 10 10
13 13 18 14 12 12 12 9 8 8 8 8 8 9 16 12 10 11 11 9 10 9 9 9 9 9 7 6 6 5 4 4 4 4 2 3 5 5 6 7 9 10 11
13 13 12 12 11 11 9 7 6 7 7 7 6 7 24 8 6 7 9 9 8 8 7 8 8 7 7 7 6 5 5 4 3 3 4 5 4 5 6 8 9 10 10
11 11 10 10 9 6 4 4 5 6 6 5 6 7 5 9 8 9 9 9 9 8 7 7 8 6 5 5 4 4 5 5 5 5 4 4 4 5 6 8 10 10 10
9 7 5 3 2 2 1 2 2 3 4 6 8 8 9 9 10 11 10 9 9 8 6 5 5 7 6 4 3 3 4 3 3 5 7 5 5 6 7 9 10 11 11
8 7 7 6 5 5 5 5 6 8 9 8 8 9 9 9 11 10 9 9 8 7 6 5 4 6 6 6 5 6 6 9 8 8 5 6 8 11 10 8 10 9 11
9 9 8 7 7 7 7 8 8 8 8 8 8 8 9 9 9 10 9 8 7 6 6 4 3 4 4 4 5 7 8 11 10 12 8 7 8 8 5 8 11 8 10
Wind_Direction
287 289 265 253 216 191 198 196 191 173 175 178 183 185 182 185 186 185 182 173 180 174 169 173 170 157 155 148 144 148 158 157 172 298 301 348 344 348 323 316 315 313 310
270 243 231 222 208 208 220 211 184 181 181 183 183 185 189 190 186 189 184 181 180 179 174 171 170 161 161 157 161 171 168 173 152 195 280 260 236 254 276 273 263 258 260
308 278 249 226 209 220 218 209 204 197 189 187 184 187 190 191 188 193 188 182 186 187 175 175 171 165 174 178 169 168 166 170 177 173 216 233 250 246 261 252 249 264 281
333 289 262 235 221 226 223 209 203 198 201 199 193 192 195 189 190 190 185 185 184 185 176 176 170 179 177 171 175 172 165 171 172 195 217 238 234 237 247 294 319 326 319
339 340 323 278 251 234 222 211 200 202 197 198 200 198 192 196 193 188 186 184 180 177 175 175 177 172 176 174 172 177 171 168 168 179 223 224 235 307 332 322 322 317 318
342 343 336 323 287 255 241 218 196 201 198 194 198 194 197 201 198 194 185 181 182 178 174 173 171 171 188 183 188 191 182 173 164 176 199 218 278 315 305 321 316 324 345
333 333 339 337 327 297 252 220 208 204 193 200 200 194 196 207 200 197 194 184 179 180 170 170 165 169 173 179 193 193 195 198 189 183 203 210 248 252 295 306 309 308 298
326 325 335 335 323 305 274 239 237 212 204 200 201 199 198 203 200 196 193 187 181 176 173 174 173 169 179 181 184 195 199 200 208 225 203 222 225 259 247 277 325 310 297
325 325 329 330 319 307 265 256 236 226 222 220 209 198 203 204 197 191 187 191 186 175 169 172 173 173 183 185 175 180 189 204 222 226 230 237 259 295 307 353 307 331 308
325 321 307 308 303 293 275 250 234 224 230 222 213 207 211 205 198 193 185 178 179 173 170 174 177 175 184 186 176 175 185 198 198 182 255 282 308 289 294 275 170 202 273
315 311 303 302 296 295 289 249 234 216 176 188 195 207 205 200 204 198 188 185 178 172 174 173 182 185 187 189 182 179 189 174 200 139 163 195 239 230 255 258 247 230 248
299 297 306 309 299 283 258 258 227 217 195 181 170 176 199 200 213 206 199 186 183 179 181 174 168 181 187 190 189 191 198 139 128 119 123 240 235 229 263 270 276 261 253
301 302 304 302 301 270 255 242 225 210 216 192 190 198 185 182 214 217 204 184 196 184 176 167 165 179 182 191 190 195 147 141 131 124 191 212 250 289 296 300 285 276 268
296 296 297 294 293 278 246 238 226 217 211 211 199 202 189 186 187 208 206 179 185 171 163 157 166 172 174 138 160 170 156 145 144 161 176 190 317 295 296 285 283 286 287
291 288 286 285 281 279 249 236 232 233 220 221 209 202 187 194 200 198 189 174 169 160 154 157 162 149 148 145 151 143 148 144 151 155 158 151 309 309 287 280 283 285 285
286 284 281 282 281 280 268 255 244 242 241 239 233 200 207 203 189 201 208 182 174 165 160 169 165 164 165 157 164 157 167 160 148 146 154 202 267 292 283 285 282 277 284
278 283 282 275 271 272 271 245 254 247 247 241 239 226 217 208 197 193 199 196 177 165 166 167 165 161 161 163 164 163 158 152 140 146 170 225 294 287 290 289 284 283 284
275 276 273 272 269 267 266 250 236 237 240 235 234 230 226 211 208 196 194 184 178 167 166 162 163 168 157 161 158 160 156 153 147 157 161 201 220 254 280 277 281 287 288
277 272 272 271 270 271 277 258 225 228 227 230 221 227 213 216 208 200 196 193 178 160 155 161 162 160 157 161 154 146 148 143 142 150 158 183 219 224 257 269 278 285 287
273 269 262 266 265 259 259 247 223 220 222 226 208 213 184 190 194 196 198 185 155 159 164 148 148 147 149 153 146 147 141 144 154 156 192 179 229 230 258 271 281 286 281
276 273 263 261 259 256 257 224 215 211 214 216 216 204 194 185 192 191 184 143 142 143 149 145 138 136 137 136 141 145 143 151 154 168 160 213 222 249 257 266 277 278 277
274 264 259 255 259 254 236 215 209 212 211 209 202 196 193 181 154 119 127 124 120 118 117 126 120 126 143 153 151 146 160 165 171 173 202 213 235 251 259 271 277 275 293
296 286 271 257 244 221 209 197 204 204 202 182 175 176 143 114 114 112 105 101 98 96 99 109 116 119 134 137 141 148 162 196 193 179 193 211 231 248 260 268 275 288 294
312 318 327 349 11 58 93 112 104 119 132 104 88 94 98 104 103 98 96 96 97 93 90 103 110 132 142 147 155 173 194 189 173 200 203 207 245 265 261 264 281 282 292
344 353 7 14 29 44 56 60 62 64 78 85 90 89 90 94 96 98 97 99 98 104 108 111 120 146 155 167 187 204 216 232 224 206 202 221 239 253 257 267 280 280 291
2 8 13 20 31 39 49 57 61 64 72 75 79 84 93 99 98 98 97 99 103 104 116 124 143 139 169 209 223 227 227 230 229 223 214 222 241 257 264 270 278 280 288